Flag for U.S.A. Weather past 2 weeks in New Orleans, Louisiana, U.S.A.

Now
76 °F

Overcast.


Feels Like: 77 °F
Forecast: 75 / 85 °F
Wind: 8 mph from Southeast

Location: Lakefront Airport

Current Time: Sep 19, 2014 at 7:26:34 AM

Latest Report: Sep 19, 2014 at 6:53 AM


Visibility: 10 mi

Pressure: 29.91 "Hg

Humidity: 82%

Dew point: 70 °F

Location of New OrleansLocation

Historic Weather in New Orleans — Graph

°F

New Orleans temperature yesterday

Maximum temperature yesterday: 87 °F (at 1:53 PM)
Minimum temperature yesterday: 76 °F (at 11:53 PM)
Average temperature yesterday: 81 °F

Past Weeks' High & Low Weather Summary

 TemperatureHumidityPressure
High91 °F (Sep 9, 2:53 PM)91% (Sep 19, 1:53 AM)30.12 "Hg (Sep 19, 1:53 AM)
Low73 °F (Sep 14, 7:53 AM)50% (Sep 6, 4:53 PM)29.85 "Hg (Sep 18, 3:53 PM)
Average82 °F76%29.99 "Hg
* Reported Sep 4 5:53 AM — Sep 19 5:53 AM, New Orleans, Weather by CustomWeather, © 2014

Note: Actual official high and low records may vary slightly from our data, if they occured in-between our weather recording intervals... More about our weather records

Advertising

New Orleans weather history for previous 24 hours

 ConditionsComfort  
Time TempWeatherWind HumidityBarometerVisibility
5:53 AM
Sep 19
75 °FOvercast.7 mph85%29.89 "Hg10 mi
4:53 AM74 °FOvercast.7 mph91%29.89 "Hg10 mi
3:53 AM74 °FOvercast.8 mph85%29.89 "Hg10 mi
2:53 AM74 °FOvercast.8 mph88%29.89 "Hg10 mi
1:53 AM74 °FMostly cloudy.10 mph91%29.91 "Hg10 mi
1:00 AM74 °FMostly cloudy.10 mph85%29.95 "Hg3 mi
12:04 AM75 °FOvercast.10 mph85%29.94 "Hg2 mi
11:53 PM
Sep 18
76 °FOvercast.14 mph85%29.92 "Hg5 mi
10:53 PM79 °FPassing clouds.10 mph77%29.91 "Hg10 mi
9:53 PM80 °FClear.6 mph74%29.91 "Hg10 mi
8:53 PM79 °FPassing clouds.6 mph77%29.90 "Hg10 mi
7:53 PM79 °FSunny.6 mph74%29.88 "Hg10 mi
6:53 PM78 °FSunny.6 mph71%29.87 "Hg10 mi
5:53 PM79 °FSunny.14 mph74%29.85 "Hg10 mi
4:53 PM84 °FScattered clouds.9 mph70%29.85 "Hg10 mi
3:53 PM84 °FCloudy.7 mph74%29.85 "Hg7 mi
2:53 PM86 °FBroken clouds.7 mph65%29.87 "Hg10 mi
1:53 PM87 °FScattered clouds.6 mph61%29.88 "Hg10 mi
12:53 PM86 °FPartly sunny.3 mph63%29.90 "Hg10 mi
11:53 AM86 °FSunny.6 mph61%29.91 "Hg10 mi
10:53 AM85 °FScattered clouds.6 mph70%29.93 "Hg10 mi
9:53 AM83 °FScattered clouds.6 mph72%29.93 "Hg10 mi
8:53 AM82 °FSunny.10 mph77%29.92 "Hg10 mi
7:53 AM81 °FPassing clouds.7 mph79%29.92 "Hg10 mi
Weather by CustomWeather, © 2014

See weather overviewHow to use our weather pages